SCP
0 0 0 0 0 0 0 0 0 0 0 0 0 0 0 0 0 0 0 0 0 0 0 0 0 0 0 0 0 0 0 0 0 0 0 0 0 0 0 0 0 0 0 0 0 0 0 0 0 0 0 0 0 0
0 0 0 0 0 0 0 0 0 0 0 0 0 0 0 0 0 0 0 0 0 0 0 0 0 0 0 0 0 0 0 0 0 0 0 0 0 0 0 0 0 0 0 0 0 0 0 0 0 0 0 0 0 0
0 0 0 0 0 0 0 0 0 0 0 0 0 0 0 0 0 0 0 0 0 0 0 0 0 0 0 0 0 0 0 0 0 0 0 0 0 0 0 0 0 0 0 0 0 0 0 0 0 0 0 0 0 0
0 0 0 0 0 0 0 0 0 0 0 0 0 0 0 0 0 0 0 0 0 0 0 0 0 0 0 0 0 0 0 0 0 0 0 0 0 0 0 0 0 0 0 0 0 0 0 0 0 0 0 0 0 0
0 0 0 0 0 0 0 0 0 0 0 0 0 0 0 0 0 0 0 0 0 0 0 0 0 0 0 0 0 0 0 0 0 0 0 0 0 0 0 0 0 0 0 0 0 0 0 0 0 0 0 0 0 0
0 0 0 0 0 0 0 0 0 0 0 0 0 0 0 0 0 0 0 0 0 0 0 0 0 0 0 0 0 0 0 0 0 0 0 0 0 0 0 0 0 0 0 0 0 0 0 0 0 0 0 0 0 0
0 0 0 0 0 0 0 0 0 0 0 0 0 0 0 0 0 0 0 0 0 0 0 0 0 0 0 0 0 0 0 0 0 0 0 0 0 0 0 0 0 0 0 0 0 0 0 0 0 0 0 0 0 0
0 0 0 0 0 0 0 0 0 0 0 0 0 0 0 0 0 0 0 0 0 0 0 0 0 0 0 0 0 0 0 0 0 0 0 0 0 0 0 0 0 0 0 0 0 0 0 0 0 0 0 0 0 0
0 0 0 0 0 0 0 0 0 0 0 0 0 0 0 0 0 0 -0 -0 0 0 0 0 0 0 0 0 0 0 0 0 0 0 0 0 0 0 0 0 0 0 0 0 0 0 0 0 0 0 0 0 0 0
0 0 0 0 0 0 0 0 0 0 0 0 0 0 0 0 0 0 0 0 0 0 0 0 0 0 0 0 0 0 0 0 0 0 0 0 0 0 0 0 0 0 0 0 0 0 0 0 0 0 0 0 0 0
0 0 0 0 0 0 0 0 0 0 0 0 0 0 0 0 0 0 0 0 0 0 0 0 0 0 0 0 0 0 0 0 0 0 0 0 0 0 0 0 0 0 0 0 0 0 0 0 0 0 0 0 0 0
0 0 0 0 0 0 0 0 0 0 0 0 0 0 0 0 0 0 0 0 0 0 0 0 0 0 0 0 0 0 0 0 0 0 0 0 0 0 0 0 0 0 0 0 0 0 0 0 0 0 0 0 0 0
0 0 0 0 0 0 0 0 0 0 0 0 0 0 0 0 0 0 0 0 0 0 0 0 0 0 0 0 0 0 0 0 0 0 0 0 0 0 0 0 0 0 0 0 0 0 0 0 0 0 0 0 0 0
0 0 0 0 0 0 0 0 0 0 0 0 0 0 0 0 0 0 0 0 0 0 0 0 0 0 0 0 0 0 0 0 0 0 0 0 0 0 0 0 0 0 0 0 0 0 0 0 0 0 0 0 0 0
0 0 0 0 0 0 0 0 0 0 0 0 0 0 0 0 0 0 0 0 0 0 0 0 0 0 0 0 0 0 0 0 0 0 0 0 0 0 0 0 0 0 0 0 0 0 0 0 0 0 0 0 0 0
0 0 0 0 0 0 0 0 0 0 0 0 0 0 0 0 0 0 0 0 0 0 0 0 0 0 0 0 0 0 0 0 0 0 0 0 0 0 0 0 0 0 0 0 0 0 0 0 0 0 0 0 0 0
0 0 0 0 0 0 0 0 0 0 0 0 0 0 0 0 0 0 0 0 0 0 0 0 0 0 0 0 0 0 0 0 0 0 0 0 0 0 0 0 0 0 0 0 0 0 0 0 0 0 0 0 0 0
0 0 0 0 0 0 0 0 0 0 0 0 0 0 0 0 0 0 0 0 0 0 0 0 0 0 0 0 0 0 0 0 0 0 0 0 0 0 0 0 0 0 0 0 0 0 0 0 0 0 0 0 0 0
0 0 0 0 0 0 0 0 0 0 0 0 0 0 0 0 0 0 0 0 0 0 0 0 0 0 0 0 0 0 0 0 0 0 0 0 0 0 0 0 0 0 0 0 0 0 0 0 0 0 0 0 0 0
0 0 0 0 0 0 0 0 0 0 0 0 0 0 0 0 0 0 0 0 0 0 0 0 0 0 0 0 0 0 0 0 0 0 0 0 0 0 0 0 0 0 0 0 0 0 0 0 0 0 0 0 0 0
0 0 0 0 0 0 0 0 0 0 0 0 0 0 0 0 0 0 0 0 0 0 0 0 0 0 0 0 0 0 0 0 0 0 0 0 0 0 0 0 0 0 0 0 0 0 0 0 0 0 0 0 0 0
0 0 0 0 0 0 0 0 0 0 0 0 0 0 0 0 0 0 0 0 0 0 0 0 0 0 0 0 0 0 0 0 0 0 0 0 0 0 0 0 0 0 0 0 0 0 0 0 0 0 0 0 0 0
0 0 0 0 0 0 0 0 0 0 0 0 0 0 0 0 0 0 0 0 0 0 0 0 0 0 0 0 0 0 0 0 0 0 0 0 0 0 0 0 0 0 0 0 0 0 0 0 0 0 0 0 0 0
0 0 0 0 0 0 0 0 0 0 0 0 0 0 0 0 0 0 0 0 0 0 0 0 0 0 0 0 0 0 0 0 0 0 0 0 0 0 0 0 0 0 0 0 0 0 0 0 0 0 0 0 0 0
0 0 0 0 0 0 0 0 0 0 0 0 0 0 0 0 0 0 0 0 0 0 0 0 0 0 0 0 0 0 0 0 0 0 0 0 0 0 0 0 0 0 0 0 0 0 0 0 0 0 0 0 0 0
-0 0 0 0 0 0 0 0 0 0 0 0 0 0 0 0 0 0 0 0 0 0 0 0 0 0 0 0 0 0 0 0 0 0 0 0 0 0 0 0 0 0 0 0 0 0 0 0 0 0 0 0 0 0
-0 0 0 0 0 0 0 0 0 0 0 0 0 0 0 0 0 0 0 0 0 0 0 0 0 0 0 0 0 0 0 0 0 0 0 0 0 0 0 0 0 0 0 0 0 0 0 0 0 0 0 0 0 0
0 0 0 0 0 0 0 0 0 0 0 0 0 0 0 0 0 0 0 0 0 0 0 0 0 0 0 0 0 0 0 0 0 0 0 0 0 0 0 0 0 0 0 0 0 0 0 0 0 0 0 0 0 0
0 0 0 0 0 0 0 0 0 0 0 0 0 0 0 0 0 0 0 0 0 0 0 0 0 0 0 0 0 0 0 0 0 0 0 0 0 0 0 0 0 0 0 0 0 0 0 0 0 0 0 0 0 0
0 0 0 0 0 0 0 0 0 0 0 0 0 0 0 0 0 0 0 0 0 0 0 0 0 0 0 0 0 0 0 0 0 0 0 0 0 0 0 0 0 0 0 0 0 0 0 0 0 0 0 0 0 0
0 0 0 0 0 0 0 0 0 0 0 0 0 0 0 0 0 0 0 0 0 0 0 0 0 0 0 0 0 0 0 0 0 0 0 0 0 0 0 0 0 0 0 0 0 0 0 0 0 0 0 0 0 0
0 0 0 0 0 0 0 0 0 0 0 0 0 0 0 0 0 0 0 0 0 0 0 0 0 0 0 0 0 0 0 0 0 0 0 0 0 0 0 0 0 0 0 0 0 0 0 0 0 0 0 0 0 0
0 0 0 0 0 0 0 0 0 0 0 0 0 0 0 0 0 0 0 0 0 0 0 0 0 0 0 0 0 0 0 0 0 0 0 0 0 0 0 0 0 0 0 0 0 0 0 0 0 0 0 0 0 0
Wind_Speed_500mb
63 54 54 59 55 58 57 50 58 46 51 49 48 46 44 45 42 48 40 29 34 15 15 20 17 11 20 23 11 21 13 1 4 6 7 8 6 13 5 8 14 15 17 9 4 6 16 26 13 15 12 19 17 30
61 60 58 59 55 57 56 56 49 49 53 49 47 46 44 46 50 53 53 41 33 21 11 31 38 25 26 29 31 47 9 15 22 7 2 6 2 2 6 7 3 4 13 12 20 14 7 47 38 61 45 32 34 40
67 65 65 63 58 52 60 59 59 59 54 53 52 51 49 53 48 57 56 45 39 28 29 40 35 35 42 31 30 24 14 19 19 14 16 5 7 7 9 10 4 8 10 7 8 10 14 39 54 43 37 44 49 47
69 64 65 65 62 51 45 50 63 58 58 58 56 57 54 53 57 59 63 58 45 11 9 14 24 41 46 44 46 44 29 39 23 23 9 6 6 17 7 6 9 13 13 8 7 12 27 45 56 54 62 65 61 60
66 66 63 58 58 60 57 47 47 54 59 59 57 48 47 49 52 61 62 67 61 43 9 6 15 33 38 59 55 50 45 40 37 13 5 6 10 8 1 4 8 23 19 9 15 51 36 44 59 61 63 62 64 52
74 68 64 65 56 60 59 59 43 40 35 34 41 52 53 47 43 38 25 55 60 56 13 6 19 41 42 43 64 56 53 45 39 20 8 12 12 20 8 9 39 72 50 63 51 71 58 70 76 79 77 77 71 66
43 50 56 57 52 49 48 54 54 44 42 38 35 31 28 32 49 41 14 22 51 66 16 5 6 20 49 48 55 60 61 37 29 18 16 15 16 31 6 11 60 41 54 67 65 64 55 76 56 72 67 64 63 58
44 56 55 55 51 50 49 42 45 43 40 37 34 30 28 28 29 35 38 20 43 58 16 6 4 1 28 21 15 32 25 34 26 19 12 11 18 16 12 47 47 65 84 60 79 76 76 79 69 68 64 58 61 65
37 38 57 60 51 51 43 44 42 42 40 36 31 28 28 33 28 33 29 30 21 33 8 9 11 9 31 10 15 15 22 9 23 12 10 22 8 14 25 34 51 77 67 67 72 59 54 57 63 62 65 64 62 61
40 57 52 52 46 40 39 37 35 33 34 31 28 18 15 25 29 24 23 20 33 26 21 6 14 4 21 6 5 10 8 5 6 7 19 10 15 78 42 48 62 72 74 63 63 64 58 53 57 60 59 55 51 45
20 39 45 45 42 38 37 33 31 31 30 34 21 18 17 37 36 23 16 15 13 6 16 20 32 9 19 7 6 15 6 6 7 9 13 7 13 39 68 80 99 99 84 78 74 61 59 60 57 47 42 41 42 40
15 31 35 33 30 28 27 28 34 37 33 28 21 18 35 22 15 11 10 7 8 13 12 13 21 29 26 17 7 14 9 7 11 11 9 7 20 51 61 77 91 85 82 78 71 59 46 41 35 33 35 36 35 35
16 13 21 24 25 25 24 24 31 45 43 33 18 16 13 13 14 17 19 5 6 6 23 21 5 23 16 17 7 10 13 12 16 10 8 11 20 48 60 69 72 70 63 53 46 40 36 32 29 28 28 30 30 27
11 15 17 18 19 21 22 25 30 39 42 20 15 14 9 6 8 7 10 11 14 23 49 34 13 8 13 9 7 8 8 7 10 10 15 9 38 52 46 55 65 67 56 48 43 38 34 30 28 28 26 23 22 20
12 14 16 17 19 21 22 25 32 39 16 10 10 10 9 5 2 3 9 12 17 22 40 13 7 12 5 8 8 6 6 8 11 12 8 19 30 44 52 54 56 51 48 44 38 34 31 28 25 21 18 15 13 12
14 5 11 13 14 19 22 28 30 33 12 13 12 4 5 6 6 4 4 7 11 31 23 11 7 8 10 7 11 13 13 14 10 7 9 14 19 23 33 38 41 40 39 37 34 29 25 21 17 13 10 8 8 11
17 6 14 15 13 18 22 23 22 11 12 10 4 12 9 11 10 10 10 6 13 21 6 4 8 12 4 5 6 7 9 6 2 4 6 5 3 9 18 24 27 28 29 28 27 25 20 15 11 8 7 7 7 10
17 13 13 18 18 17 13 15 8 1 7 9 2 4 8 15 23 18 17 19 12 1 0 3 3 8 8 8 7 3 4 2 5 5 2 3 6 11 14 16 21 21 22 22 19 18 17 15 11 8 5 5 6 8
9 7 11 9 19 16 14 12 6 7 4 4 6 4 4 10 13 14 15 16 19 11 1 1 5 1 2 4 3 12 11 9 5 8 10 11 12 14 19 23 24 24 23 23 22 20 16 13 10 7 5 3 2 3
14 12 19 7 15 10 9 7 6 8 4 5 8 7 5 8 11 13 12 12 11 7 6 7 5 7 9 8 7 10 12 10 3 4 4 9 14 17 19 20 19 20 21 21 19 17 14 11 9 8 7 5 4 1
19 19 14 9 5 8 10 7 10 8 7 7 10 6 5 9 10 10 10 12 13 12 5 11 11 14 13 13 11 7 7 5 7 5 6 15 19 19 20 21 22 20 17 15 14 14 14 13 12 11 9 6 3 2
20 15 14 12 6 8 12 11 10 9 6 7 6 7 10 4 9 12 12 22 11 9 12 17 18 17 13 10 8 6 6 6 6 4 3 9 22 23 25 22 20 18 17 16 15 13 12 12 11 9 6 4 2 2
23 18 9 8 8 9 6 7 6 7 6 2 5 5 5 5 5 8 10 10 9 24 25 18 16 14 10 8 6 5 4 4 5 6 12 12 17 17 17 18 17 14 15 15 14 13 12 11 9 7 5 3 1 4
13 10 13 11 17 4 3 9 7 7 7 6 5 5 5 4 8 8 7 7 16 29 23 17 17 13 8 8 7 5 4 4 5 7 11 9 12 17 19 16 15 15 13 11 9 9 9 9 7 6 5 2 4 7
9 20 15 13 16 10 10 8 9 7 6 5 5 5 5 9 5 7 5 12 27 29 29 19 18 15 12 9 7 6 7 10 12 10 17 18 12 13 14 12 9 7 5 5 6 7 8 8 7 6 5 6 9 11
16 19 13 10 11 8 6 6 7 4 4 6 6 7 7 4 8 6 4 22 24 29 28 21 20 17 16 14 14 15 15 16 16 14 15 14 11 7 4 3 2 1 3 6 9 10 10 10 9 9 10 12 15 17
12 10 14 16 8 6 5 7 7 7 9 9 6 9 5 9 8 4 13 19 28 25 16 14 16 20 21 21 21 19 15 13 11 9 7 5 3 2 4 5 6 6 7 9 9 11 13 14 14 15 17 18 20 21
11 21 10 23 13 17 5 6 8 8 6 14 4 12 7 7 2 15 12 22 17 14 17 17 19 20 19 17 13 12 11 9 8 10 10 9 9 9 9 8 8 9 9 11 11 11 13 16 19 21 23 24 21 20
12 29 12 8 8 14 14 8 5 7 12 7 4 6 6 10 17 15 17 17 14 16 17 19 19 17 15 16 16 14 12 11 6 6 7 8 9 11 12 14 15 16 15 15 16 18 20 23 25 28 29 30 30 32
18 29 11 10 9 9 10 12 8 12 20 21 25 37 32 34 41 33 30 26 23 22 21 21 21 17 18 15 17 17 18 18 17 16 15 16 19 19 20 19 19 21 23 24 24 25 28 30 31 34 39 43 46 52
21 18 6 12 8 10 11 14 18 18 17 20 24 21 17 28 58 62 57 51 46 40 38 37 34 31 28 26 24 21 19 20 20 19 20 23 26 28 30 30 31 32 33 34 36 38 41 44 47 51 54 58 60 61
25 16 7 6 5 10 13 8 6 7 6 7 8 11 13 11 11 21 50 39 41 42 41 39 36 27 23 24 21 23 29 35 35 33 34 35 36 37 37 39 40 43 46 47 49 51 53 56 59 61 63 65 65 65
8 12 13 7 5 6 15 10 3 6 8 6 8 13 14 9 10 9 39 42 37 39 40 41 42 43 33 36 34 30 40 48 46 43 41 41 43 44 46 45 47 50 50 52 53 52 53 54 56 58 59 60 60 61
Wind_Direction_500mb
249 242 244 243 239 232 235 235 222 219 219 219 219 220 216 214 212 217 216 204 208 209 244 214 209 174 155 184 149 156 110 194 95 135 149 177 165 205 159 176 178 163 166 193 103 173 267 186 124 179 202 176 233 238
248 244 245 244 242 234 232 234 228 220 221 222 218 217 218 219 214 214 216 216 209 214 237 235 240 212 208 215 180 164 186 164 160 111 200 104 158 47 152 227 162 245 193 182 188 204 233 185 210 218 234 245 242 239
243 241 246 242 240 238 235 232 228 226 226 225 222 221 222 221 215 215 218 215 199 222 255 256 244 222 224 217 217 163 204 170 181 151 153 161 185 130 167 233 163 252 162 212 97 221 225 204 218 230 237 253 266 255
242 237 231 232 229 234 234 236 230 226 229 228 228 230 229 228 220 215 215 216 211 170 221 250 238 233 221 219 215 213 220 186 173 167 134 140 162 189 202 172 179 205 155 167 261 282 256 239 243 253 268 273 264 259
240 235 233 229 227 233 235 233 223 223 228 227 221 219 215 211 223 217 217 220 215 200 199 224 229 222 215 211 210 208 211 190 170 152 124 206 176 122 308 96 254 201 220 212 241 252 243 259 269 270 271 269 271 267
253 222 227 219 227 223 223 230 224 223 217 221 224 222 224 220 221 221 224 229 223 218 226 203 241 228 222 213 210 213 211 197 191 184 177 214 185 173 172 201 248 246 240 242 243 260 264 267 271 272 273 273 271 268
236 214 217 220 222 220 219 220 217 223 218 230 229 222 208 216 215 208 215 229 214 211 214 216 248 201 204 202 208 215 215 204 197 186 208 197 185 183 192 211 244 243 254 258 258 260 262 265 255 268 271 272 276 273
248 221 212 213 213 216 215 210 203 204 203 204 208 217 229 227 235 237 234 141 173 184 199 194 205 159 190 183 176 198 194 200 211 204 202 176 172 199 231 235 248 254 262 264 267 265 257 267 265 270 269 270 269 274
231 226 200 202 208 209 205 209 215 204 202 205 207 213 214 220 224 233 247 252 251 206 197 150 161 218 165 136 161 162 170 183 187 200 196 166 178 219 224 213 227 245 244 249 267 267 262 260 271 274 274 274 271 270
227 243 197 186 183 191 197 199 198 199 195 193 200 192 209 214 198 178 174 198 204 208 214 181 163 161 168 126 108 129 188 202 191 220 156 207 226 237 233 240 246 255 256 256 255 263 264 265 272 280 279 273 265 257
152 162 166 165 164 171 175 179 181 178 185 190 180 211 187 162 166 181 186 183 196 220 202 179 178 141 180 144 155 197 172 178 200 230 180 209 245 241 241 244 251 254 257 259 264 265 269 273 274 273 265 253 244 245
82 128 143 155 164 172 178 187 190 195 194 193 182 195 164 180 184 196 181 149 182 203 181 157 179 181 163 163 135 177 179 194 221 138 166 234 244 241 239 240 250 252 254 255 257 259 257 256 256 253 243 240 242 244
175 155 162 175 185 196 203 210 198 205 199 188 193 178 203 207 203 186 163 183 180 181 174 162 157 150 145 173 164 178 195 210 113 183 218 228 231 238 240 245 244 244 243 244 239 239 236 239 240 237 232 229 233 240
175 201 206 206 204 204 205 196 195 197 178 179 182 190 205 210 216 182 181 169 201 178 174 163 129 152 163 177 171 195 188 129 205 202 226 233 234 251 245 240 236 235 233 231 232 229 229 229 228 222 222 228 238 248
144 166 178 185 196 205 204 203 201 208 221 180 187 210 207 222 213 159 172 148 164 175 157 121 105 147 165 205 190 132 161 223 204 222 224 244 259 254 240 230 225 224 221 219 219 218 218 216 213 218 221 229 241 259
74 84 153 187 191 203 207 207 214 220 207 202 204 121 104 78 322 84 121 110 137 165 142 134 152 200 212 187 181 193 172 211 233 217 284 292 261 248 237 227 216 210 205 204 205 205 202 201 207 213 215 223 257 279
330 271 252 243 210 214 207 202 209 240 211 194 178 176 161 107 147 140 118 120 159 162 167 167 189 217 160 214 221 172 207 219 289 312 309 295 213 200 200 205 205 194 186 186 187 185 188 188 187 195 223 253 279 302
305 273 247 241 234 218 202 183 219 7 62 26 20 141 149 122 138 142 137 127 137 148 320 259 305 176 207 199 235 291 19 117 115 125 102 114 143 154 151 169 175 172 170 168 169 170 169 175 178 193 226 273 301 315
158 180 238 229 177 173 172 173 186 111 100 107 87 55 93 121 131 149 168 173 179 175 181 238 263 290 44 53 349 6 20 339 230 163 129 127 134 147 157 160 163 163 163 164 162 163 165 169 175 187 204 228 285 321
208 239 256 270 187 164 123 91 121 110 107 110 107 82 47 60 99 99 109 121 128 103 56 23 33 10 350 345 339 310 320 330 304 134 101 140 155 156 156 153 156 159 162 162 164 167 169 172 182 184 184 178 167 205
236 249 265 213 160 90 92 82 68 79 100 91 102 93 71 73 56 53 55 61 69 37 52 26 5 351 345 336 332 324 325 279 268 279 274 205 178 167 163 158 157 160 165 169 178 179 176 176 180 180 179 173 180 247
188 197 158 159 96 84 81 62 97 101 84 99 80 65 52 41 28 25 28 51 51 30 5 345 341 343 348 352 8 5 11 16 16 26 150 189 175 168 168 164 167 170 173 174 177 174 180 189 196 198 200 199 220 286
139 141 96 76 93 60 54 66 79 42 83 39 60 64 35 36 29 59 76 65 57 3 355 350 349 344 343 352 359 4 13 40 50 89 128 151 157 161 167 166 163 164 172 174 179 189 203 206 206 206 200 204 273 317
112 66 41 45 35 64 55 40 51 65 73 46 71 90 14 333 8 69 74 49 2 6 12 6 354 357 357 344 352 15 32 64 84 116 127 136 159 153 150 154 158 166 173 178 189 204 209 210 205 201 204 241 291 295
87 14 23 12 19 29 36 23 9 46 54 354 78 53 1 354 72 55 59 355 2 0 3 8 8 9 10 6 16 54 87 94 87 108 107 97 106 131 133 139 155 169 180 196 217 223 219 212 208 217 242 274 291 297
68 12 35 350 8 40 351 56 32 18 11 56 30 344 359 47 63 48 343 347 352 351 356 6 17 41 48 57 78 92 96 99 99 98 101 107 113 114 117 147 187 258 283 261 253 239 232 229 239 254 270 286 292 295
52 354 9 25 352 322 42 45 49 52 50 28 352 350 27 63 54 318 348 354 351 358 19 37 58 62 68 78 84 82 77 82 87 93 94 89 68 9 341 322 308 302 290 271 264 254 246 248 258 269 278 280 287 294
61 25 23 341 29 31 53 42 37 30 3 347 298 33 68 38 342 332 331 340 3 45 58 65 67 70 73 73 71 70 64 56 71 80 67 51 42 27 11 350 330 312 297 287 285 280 270 266 270 274 279 283 286 288
35 355 355 6 54 50 41 30 44 24 352 2 34 65 73 37 11 16 23 30 54 72 70 72 71 69 71 67 64 60 53 55 65 49 32 24 11 357 334 324 316 312 309 305 299 291 283 279 278 278 280 284 287 289
359 359 4 26 50 37 8 23 35 51 61 77 95 107 93 59 51 61 60 64 70 69 68 62 62 65 70 72 65 55 46 39 32 21 6 351 341 335 330 324 316 308 303 298 292 287 284 284 283 284 287 290 292 295
352 349 46 48 75 35 38 73 78 80 81 87 104 105 108 85 70 60 60 64 68 72 70 66 62 53 50 45 33 22 17 12 1 346 330 323 318 316 312 308 303 299 294 290 287 285 283 281 280 281 282 285 288 291
4 23 19 58 37 37 40 38 56 80 81 71 70 103 110 101 75 42 23 29 39 41 38 33 25 13 12 7 348 337 335 338 334 328 323 318 315 313 309 305 301 295 291 288 286 285 285 285 286 286 288 289 291 293
359 22 38 57 33 24 3 11 93 103 76 80 68 72 76 81 84 78 35 31 21 14 7 3 3 3 353 349 343 325 320 321 320 317 314 310 307 306 306 305 300 296 296 295 293 292 292 291 292 292 293 294 294 295
Wind_Speed_850mb
63 54 54 59 55 58 57 50 58 46 51 49 48 46 44 45 42 48 40 29 34 15 15 20 17 11 20 23 11 21 13 1 4 6 7 8 6 13 5 8 14 15 17 9 4 6 16 26 13 15 12 19 17 30
61 60 58 59 55 57 56 56 49 49 53 49 47 46 44 46 50 53 53 41 33 21 11 31 38 25 26 29 31 47 9 15 22 7 2 6 2 2 6 7 3 4 13 12 20 14 7 47 38 61 45 32 34 40
67 65 65 63 58 52 60 59 59 59 54 53 52 51 49 53 48 57 56 45 39 28 29 40 35 35 42 31 30 24 14 19 19 14 16 5 7 7 9 10 4 8 10 7 8 10 14 39 54 43 37 44 49 47
69 64 65 65 62 51 45 50 63 58 58 58 56 57 54 53 57 59 63 58 45 11 9 14 24 41 46 44 46 44 29 39 23 23 9 6 6 17 7 6 9 13 13 8 7 12 27 45 56 54 62 65 61 60
66 66 63 58 58 60 57 47 47 54 59 59 57 48 47 49 52 61 62 67 61 43 9 6 15 33 38 59 55 50 45 40 37 13 5 6 10 8 1 4 8 23 19 9 15 51 36 44 59 61 63 62 64 52
74 68 64 65 56 60 59 59 43 40 35 34 41 52 53 47 43 38 25 55 60 56 13 6 19 41 42 43 64 56 53 45 39 20 8 12 12 20 8 9 39 72 50 63 51 71 58 70 76 79 77 77 71 66
43 50 56 57 52 49 48 54 54 44 42 38 35 31 28 32 49 41 14 22 51 66 16 5 6 20 49 48 55 60 61 37 29 18 16 15 16 31 6 11 60 41 54 67 65 64 55 76 56 72 67 64 63 58
44 56 55 55 51 50 49 42 45 43 40 37 34 30 28 28 29 35 38 20 43 58 16 6 4 1 28 21 15 32 25 34 26 19 12 11 18 16 12 47 47 65 84 60 79 76 76 79 69 68 64 58 61 65
37 38 57 60 51 51 43 44 42 42 40 36 31 28 28 33 28 33 29 30 21 33 8 9 11 9 31 10 15 15 22 9 23 12 10 22 8 14 25 34 51 77 67 67 72 59 54 57 63 62 65 64 62 61
40 57 52 52 46 40 39 37 35 33 34 31 28 18 15 25 29 24 23 20 33 26 21 6 14 4 21 6 5 10 8 5 6 7 19 10 15 78 42 48 62 72 74 63 63 64 58 53 57 60 59 55 51 45
20 39 45 45 42 38 37 33 31 31 30 34 21 18 17 37 36 23 16 15 13 6 16 20 32 9 19 7 6 15 6 6 7 9 13 7 13 39 68 80 99 99 84 78 74 61 59 60 57 47 42 41 42 40
15 31 35 33 30 28 27 28 34 37 33 28 21 18 35 22 15 11 10 7 8 13 12 13 21 29 26 17 7 14 9 7 11 11 9 7 20 51 61 77 91 85 82 78 71 59 46 41 35 33 35 36 35 35
16 13 21 24 25 25 24 24 31 45 43 33 18 16 13 13 14 17 19 5 6 6 23 21 5 23 16 17 7 10 13 12 16 10 8 11 20 48 60 69 72 70 63 53 46 40 36 32 29 28 28 30 30 27
11 15 17 18 19 21 22 25 30 39 42 20 15 14 9 6 8 7 10 11 14 23 49 34 13 8 13 9 7 8 8 7 10 10 15 9 38 52 46 55 65 67 56 48 43 38 34 30 28 28 26 23 22 20
12 14 16 17 19 21 22 25 32 39 16 10 10 10 9 5 2 3 9 12 17 22 40 13 7 12 5 8 8 6 6 8 11 12 8 19 30 44 52 54 56 51 48 44 38 34 31 28 25 21 18 15 13 12
14 5 11 13 14 19 22 28 30 33 12 13 12 4 5 6 6 4 4 7 11 31 23 11 7 8 10 7 11 13 13 14 10 7 9 14 19 23 33 38 41 40 39 37 34 29 25 21 17 13 10 8 8 11
17 6 14 15 13 18 22 23 22 11 12 10 4 12 9 11 10 10 10 6 13 21 6 4 8 12 4 5 6 7 9 6 2 4 6 5 3 9 18 24 27 28 29 28 27 25 20 15 11 8 7 7 7 10
17 13 13 18 18 17 13 15 8 1 7 9 2 4 8 15 23 18 17 19 12 1 0 3 3 8 8 8 7 3 4 2 5 5 2 3 6 11 14 16 21 21 22 22 19 18 17 15 11 8 5 5 6 8
9 7 11 9 19 16 14 12 6 7 4 4 6 4 4 10 13 14 15 16 19 11 1 1 5 1 2 4 3 12 11 9 5 8 10 11 12 14 19 23 24 24 23 23 22 20 16 13 10 7 5 3 2 3
14 12 19 7 15 10 9 7 6 8 4 5 8 7 5 8 11 13 12 12 11 7 6 7 5 7 9 8 7 10 12 10 3 4 4 9 14 17 19 20 19 20 21 21 19 17 14 11 9 8 7 5 4 1
19 19 14 9 5 8 10 7 10 8 7 7 10 6 5 9 10 10 10 12 13 12 5 11 11 14 13 13 11 7 7 5 7 5 6 15 19 19 20 21 22 20 17 15 14 14 14 13 12 11 9 6 3 2
20 15 14 12 6 8 12 11 10 9 6 7 6 7 10 4 9 12 12 22 11 9 12 17 18 17 13 10 8 6 6 6 6 4 3 9 22 23 25 22 20 18 17 16 15 13 12 12 11 9 6 4 2 2
23 18 9 8 8 9 6 7 6 7 6 2 5 5 5 5 5 8 10 10 9 24 25 18 16 14 10 8 6 5 4 4 5 6 12 12 17 17 17 18 17 14 15 15 14 13 12 11 9 7 5 3 1 4
13 10 13 11 17 4 3 9 7 7 7 6 5 5 5 4 8 8 7 7 16 29 23 17 17 13 8 8 7 5 4 4 5 7 11 9 12 17 19 16 15 15 13 11 9 9 9 9 7 6 5 2 4 7
9 20 15 13 16 10 10 8 9 7 6 5 5 5 5 9 5 7 5 12 27 29 29 19 18 15 12 9 7 6 7 10 12 10 17 18 12 13 14 12 9 7 5 5 6 7 8 8 7 6 5 6 9 11
16 19 13 10 11 8 6 6 7 4 4 6 6 7 7 4 8 6 4 22 24 29 28 21 20 17 16 14 14 15 15 16 16 14 15 14 11 7 4 3 2 1 3 6 9 10 10 10 9 9 10 12 15 17
12 10 14 16 8 6 5 7 7 7 9 9 6 9 5 9 8 4 13 19 28 25 16 14 16 20 21 21 21 19 15 13 11 9 7 5 3 2 4 5 6 6 7 9 9 11 13 14 14 15 17 18 20 21
11 21 10 23 13 17 5 6 8 8 6 14 4 12 7 7 2 15 12 22 17 14 17 17 19 20 19 17 13 12 11 9 8 10 10 9 9 9 9 8 8 9 9 11 11 11 13 16 19 21 23 24 21 20
12 29 12 8 8 14 14 8 5 7 12 7 4 6 6 10 17 15 17 17 14 16 17 19 19 17 15 16 16 14 12 11 6 6 7 8 9 11 12 14 15 16 15 15 16 18 20 23 25 28 29 30 30 32
18 29 11 10 9 9 10 12 8 12 20 21 25 37 32 34 41 33 30 26 23 22 21 21 21 17 18 15 17 17 18 18 17 16 15 16 19 19 20 19 19 21 23 24 24 25 28 30 31 34 39 43 46 52
21 18 6 12 8 10 11 14 18 18 17 20 24 21 17 28 58 62 57 51 46 40 38 37 34 31 28 26 24 21 19 20 20 19 20 23 26 28 30 30 31 32 33 34 36 38 41 44 47 51 54 58 60 61
25 16 7 6 5 10 13 8 6 7 6 7 8 11 13 11 11 21 50 39 41 42 41 39 36 27 23 24 21 23 29 35 35 33 34 35 36 37 37 39 40 43 46 47 49 51 53 56 59 61 63 65 65 65
8 12 13 7 5 6 15 10 3 6 8 6 8 13 14 9 10 9 39 42 37 39 40 41 42 43 33 36 34 30 40 48 46 43 41 41 43 44 46 45 47 50 50 52 53 52 53 54 56 58 59 60 60 61
Wind_Direction_850mb
249 242 244 243 239 232 235 235 222 219 219 219 219 220 216 214 212 217 216 204 208 209 244 214 209 174 155 184 149 156 110 194 95 135 149 177 165 205 159 176 178 163 166 193 103 173 267 186 124 179 202 176 233 238
248 244 245 244 242 234 232 234 228 220 221 222 218 217 218 219 214 214 216 216 209 214 237 235 240 212 208 215 180 164 186 164 160 111 200 104 158 47 152 227 162 245 193 182 188 204 233 185 210 218 234 245 242 239
243 241 246 242 240 238 235 232 228 226 226 225 222 221 222 221 215 215 218 215 199 222 255 256 244 222 224 217 217 163 204 170 181 151 153 161 185 130 167 233 163 252 162 212 97 221 225 204 218 230 237 253 266 255
242 237 231 232 229 234 234 236 230 226 229 228 228 230 229 228 220 215 215 216 211 170 221 250 238 233 221 219 215 213 220 186 173 167 134 140 162 189 202 172 179 205 155 167 261 282 256 239 243 253 268 273 264 259
240 235 233 229 227 233 235 233 223 223 228 227 221 219 215 211 223 217 217 220 215 200 199 224 229 222 215 211 210 208 211 190 170 152 124 206 176 122 308 96 254 201 220 212 241 252 243 259 269 270 271 269 271 267
253 222 227 219 227 223 223 230 224 223 217 221 224 222 224 220 221 221 224 229 223 218 226 203 241 228 222 213 210 213 211 197 191 184 177 214 185 173 172 201 248 246 240 242 243 260 264 267 271 272 273 273 271 268
236 214 217 220 222 220 219 220 217 223 218 230 229 222 208 216 215 208 215 229 214 211 214 216 248 201 204 202 208 215 215 204 197 186 208 197 185 183 192 211 244 243 254 258 258 260 262 265 255 268 271 272 276 273
248 221 212 213 213 216 215 210 203 204 203 204 208 217 229 227 235 237 234 141 173 184 199 194 205 159 190 183 176 198 194 200 211 204 202 176 172 199 231 235 248 254 262 264 267 265 257 267 265 270 269 270 269 274
231 226 200 202 208 209 205 209 215 204 202 205 207 213 214 220 224 233 247 252 251 206 197 150 161 218 165 136 161 162 170 183 187 200 196 166 178 219 224 213 227 245 244 249 267 267 262 260 271 274 274 274 271 270
227 243 197 186 183 191 197 199 198 199 195 193 200 192 209 214 198 178 174 198 204 208 214 181 163 161 168 126 108 129 188 202 191 220 156 207 226 237 233 240 246 255 256 256 255 263 264 265 272 280 279 273 265 257
152 162 166 165 164 171 175 179 181 178 185 190 180 211 187 162 166 181 186 183 196 220 202 179 178 141 180 144 155 197 172 178 200 230 180 209 245 241 241 244 251 254 257 259 264 265 269 273 274 273 265 253 244 245
82 128 143 155 164 172 178 187 190 195 194 193 182 195 164 180 184 196 181 149 182 203 181 157 179 181 163 163 135 177 179 194 221 138 166 234 244 241 239 240 250 252 254 255 257 259 257 256 256 253 243 240 242 244
175 155 162 175 185 196 203 210 198 205 199 188 193 178 203 207 203 186 163 183 180 181 174 162 157 150 145 173 164 178 195 210 113 183 218 228 231 238 240 245 244 244 243 244 239 239 236 239 240 237 232 229 233 240
175 201 206 206 204 204 205 196 195 197 178 179 182 190 205 210 216 182 181 169 201 178 174 163 129 152 163 177 171 195 188 129 205 202 226 233 234 251 245 240 236 235 233 231 232 229 229 229 228 222 222 228 238 248
144 166 178 185 196 205 204 203 201 208 221 180 187 210 207 222 213 159 172 148 164 175 157 121 105 147 165 205 190 132 161 223 204 222 224 244 259 254 240 230 225 224 221 219 219 218 218 216 213 218 221 229 241 259
74 84 153 187 191 203 207 207 214 220 207 202 204 121 104 78 322 84 121 110 137 165 142 134 152 200 212 187 181 193 172 211 233 217 284 292 261 248 237 227 216 210 205 204 205 205 202 201 207 213 215 223 257 279
330 271 252 243 210 214 207 202 209 240 211 194 178 176 161 107 147 140 118 120 159 162 167 167 189 217 160 214 221 172 207 219 289 312 309 295 213 200 200 205 205 194 186 186 187 185 188 188 187 195 223 253 279 302
305 273 247 241 234 218 202 183 219 7 62 26 20 141 149 122 138 142 137 127 137 148 320 259 305 176 207 199 235 291 19 117 115 125 102 114 143 154 151 169 175 172 170 168 169 170 169 175 178 193 226 273 301 315
158 180 238 229 177 173 172 173 186 111 100 107 87 55 93 121 131 149 168 173 179 175 181 238 263 290 44 53 349 6 20 339 230 163 129 127 134 147 157 160 163 163 163 164 162 163 165 169 175 187 204 228 285 321
208 239 256 270 187 164 123 91 121 110 107 110 107 82 47 60 99 99 109 121 128 103 56 23 33 10 350 345 339 310 320 330 304 134 101 140 155 156 156 153 156 159 162 162 164 167 169 172 182 184 184 178 167 205
236 249 265 213 160 90 92 82 68 79 100 91 102 93 71 73 56 53 55 61 69 37 52 26 5 351 345 336 332 324 325 279 268 279 274 205 178 167 163 158 157 160 165 169 178 179 176 176 180 180 179 173 180 247
188 197 158 159 96 84 81 62 97 101 84 99 80 65 52 41 28 25 28 51 51 30 5 345 341 343 348 352 8 5 11 16 16 26 150 189 175 168 168 164 167 170 173 174 177 174 180 189 196 198 200 199 220 286
139 141 96 76 93 60 54 66 79 42 83 39 60 64 35 36 29 59 76 65 57 3 355 350 349 344 343 352 359 4 13 40 50 89 128 151 157 161 167 166 163 164 172 174 179 189 203 206 206 206 200 204 273 317
112 66 41 45 35 64 55 40 51 65 73 46 71 90 14 333 8 69 74 49 2 6 12 6 354 357 357 344 352 15 32 64 84 116 127 136 159 153 150 154 158 166 173 178 189 204 209 210 205 201 204 241 291 295
87 14 23 12 19 29 36 23 9 46 54 354 78 53 1 354 72 55 59 355 2 0 3 8 8 9 10 6 16 54 87 94 87 108 107 97 106 131 133 139 155 169 180 196 217 223 219 212 208 217 242 274 291 297
68 12 35 350 8 40 351 56 32 18 11 56 30 344 359 47 63 48 343 347 352 351 356 6 17 41 48 57 78 92 96 99 99 98 101 107 113 114 117 147 187 258 283 261 253 239 232 229 239 254 270 286 292 295
52 354 9 25 352 322 42 45 49 52 50 28 352 350 27 63 54 318 348 354 351 358 19 37 58 62 68 78 84 82 77 82 87 93 94 89 68 9 341 322 308 302 290 271 264 254 246 248 258 269 278 280 287 294
61 25 23 341 29 31 53 42 37 30 3 347 298 33 68 38 342 332 331 340 3 45 58 65 67 70 73 73 71 70 64 56 71 80 67 51 42 27 11 350 330 312 297 287 285 280 270 266 270 274 279 283 286 288
35 355 355 6 54 50 41 30 44 24 352 2 34 65 73 37 11 16 23 30 54 72 70 72 71 69 71 67 64 60 53 55 65 49 32 24 11 357 334 324 316 312 309 305 299 291 283 279 278 278 280 284 287 289
359 359 4 26 50 37 8 23 35 51 61 77 95 107 93 59 51 61 60 64 70 69 68 62 62 65 70 72 65 55 46 39 32 21 6 351 341 335 330 324 316 308 303 298 292 287 284 284 283 284 287 290 292 295
352 349 46 48 75 35 38 73 78 80 81 87 104 105 108 85 70 60 60 64 68 72 70 66 62 53 50 45 33 22 17 12 1 346 330 323 318 316 312 308 303 299 294 290 287 285 283 281 280 281 282 285 288 291
4 23 19 58 37 37 40 38 56 80 81 71 70 103 110 101 75 42 23 29 39 41 38 33 25 13 12 7 348 337 335 338 334 328 323 318 315 313 309 305 301 295 291 288 286 285 285 285 286 286 288 289 291 293
359 22 38 57 33 24 3 11 93 103 76 80 68 72 76 81 84 78 35 31 21 14 7 3 3 3 353 349 343 325 320 321 320 317 314 310 307 306 306 305 300 296 296 295 293 292 292 291 292 292 293 294 294 295